sat.trackr.live / text

‹ back to catalog

ARSAT 2

NORAD 40941 · 2015-054B

PAYLOAD ACTIVE UNKNOWN

§ Identity

Operator
Country
ARGN
Launch date
2015-09-30
Launch site
FRGUI
Launch vehicle
Mass (kg)
RCS (m²)
81.41

Purposes: comms

External: N2YO · Heavens-Above · Gunter

§ Orbital elements

Epoch: 2026-09-13T03:49:39.882432Z

Period
1,436.09 min
Inclination
0.0142°
Eccentricity
0.0001804
Mean motion
1.00272558 rev/d
Perigee alt
35,778.8 km
Apogee alt
35,794.0 km
Semi-major
42,164.5 km
B*
0.0000e+0
RAAN
83.3845°
Arg perigee
81.2709°
Mean anomaly
163.9143°
Rev number
4,018

§ Raw data

ARSAT 21 40941U 15054B   26256.15948938 -.00000237  00000+0  00000+0 0  99922 40941   0.0142  83.3845 0001804  81.2709 163.9143  1.00272558 40188

JSON: /api/v1/satellites/40941 · /tle

For live sub-satellite position, see the globe view (requires WebGL).

§ Visibility from observer

Set your observer location to see the next 7 days of passes ≥ 10°. The values pass through the URL so the page stays shareable.

No JS? Fill the form by hand. The geolocation button needs JavaScript.